Tracking 28790 objects as of 18-Apr-2024
HD Live streaming from Space Station
objects crossing your sky now

FENGYUN 1C DEB

Track FENGYUN 1C DEB now!
10-day predictions


NORAD ID: 30144
Int'l Code: 1999-025SZ
Perigee: 839.9 km
Apogee: 1,029.6 km
Inclination: 99.0 °
Period: 103.6 minutes
Semi major axis: 7305 km
RCS: 0.027 m2 (small)
Launch date: May 10, 1999
Source: People's Republic of China (PRC)
Launch site: Taiyaun Space Center, China (TSC)

Note: This is SATELLITE DEBRIS
Your satellite tracking list
Your tracking list is empty




NASA's NSSDC Master Catalog

Two Line Element Set (TLE):
1 30144U 99025SZ  24109.52538609  .00001319  00000-0  10257-2 0  9992
2 30144  98.9882 114.8167 0129842 133.1609 357.6027 13.90299047874659
Source of the keplerian elements: AFSPC